Hourly Weather Gogolevka

Today, 12 May, Wednesday

Time Temperature Precipitation Wind Pressure Humidity
00:00 +11°C° 0 mm 3 mps 749 mmHg 93%
01:00 +11°C° 0 mm 3 mps 749 mmHg 95%
02:00 +10°C° 0 mm 3 mps 749 mmHg 96%
03:00 +10°C° 0 mm 3 mps 750 mmHg 95%
04:00 +10°C° 0 mm 3 mps 750 mmHg 94%
05:00 +8°C° 0 mm 4 mps 750 mmHg 93%
06:00 +10°C° 0 mm 4 mps 750 mmHg 84%
07:00 +11°C° 0 mm 4 mps 751 mmHg 76%
08:00 +11°C° 0 mm 4 mps 751 mmHg 67%
09:00 +12°C° 0 mm 4 mps 751 mmHg 62%
10:00 +14°C° 0 mm 3 mps 750 mmHg 58%
11:00 +16°C° 0 mm 3 mps 750 mmHg 53%
12:00 +16°C° 0 mm 3 mps 749 mmHg 51%
13:00 +17°C° 0 mm 3 mps 749 mmHg 50%
14:00 +17°C° 0 mm 3 mps 748 mmHg 48%
15:00 +16°C° 0 mm 3 mps 747 mmHg 56%
16:00 +14°C° 0 mm 3 mps 747 mmHg 63%
17:00 +12°C° 0 mm 3 mps 746 mmHg 71%
18:00 +12°C° 0.8 mm 2 mps 745 mmHg 79%
19:00 +10°C° 0.8 mm 2 mps 744 mmHg 86%
20:00 +10°C° 0.8 mm 2 mps 743 mmHg 93%
21:00 +9°C° 0.6 mm 3 mps 743 mmHg 94%
22:00 +8°C° 0.6 mm 4 mps 743 mmHg 94%
23:00 +8°C° 0.6 mm 6 mps 743 mmHg 94%

Tomorrow, 13 May, Thursday

Time Temperature Precipitation Wind Pressure Humidity
00:00 +7°C° 0.1 mm 5 mps 743 mmHg 94%
01:00 +7°C° 0.1 mm 5 mps 743 mmHg 94%
02:00 +6°C° 0.1 mm 4 mps 743 mmHg 95%
03:00 +6°C° 0 mm 4 mps 743 mmHg 95%
04:00 +6°C° 0 mm 4 mps 743 mmHg 95%
05:00 +6°C° 0 mm 4 mps 743 mmHg 95%
06:00 +6°C° 0.1 mm 5 mps 743 mmHg 93%
07:00 +7°C° 0.1 mm 5 mps 743 mmHg 92%
08:00 +8°C° 0.1 mm 5 mps 742 mmHg 90%
09:00 +9°C° 0.2 mm 6 mps 742 mmHg 84%
10:00 +10°C° 0.2 mm 6 mps 742 mmHg 77%
11:00 +11°C° 0.2 mm 7 mps 742 mmHg 71%
12:00 +11°C° 0.2 mm 6 mps 742 mmHg 68%
13:00 +13°C° 0.2 mm 6 mps 742 mmHg 66%
14:00 +13°C° 0.2 mm 6 mps 742 mmHg 64%
15:00 +13°C° 0.2 mm 5 mps 741 mmHg 65%
16:00 +13°C° 0.2 mm 5 mps 741 mmHg 67%
17:00 +13°C° 0.2 mm 4 mps 741 mmHg 68%
18:00 +11°C° 0 mm 4 mps 741 mmHg 75%
19:00 +10°C° 0 mm 3 mps 742 mmHg 81%
20:00 +8°C° 0 mm 3 mps 742 mmHg 88%
21:00 +8°C° 0 mm 3 mps 742 mmHg 90%
22:00 +7°C° 0 mm 3 mps 742 mmHg 92%
23:00 +7°C° 0 mm 3 mps 742 mmHg 93%

Day after tomorrow, 14 May, Friday

Time Temperature Precipitation Wind Pressure Humidity
00:00 +7°C° 0 mm 3 mps 742 mmHg 90%
01:00 +7°C° 0 mm 4 mps 742 mmHg 87%
02:00 +7°C° 0 mm 4 mps 742 mmHg 84%
03:00 +8°C° 0 mm 4 mps 742 mmHg 84%
04:00 +8°C° 0 mm 4 mps 742 mmHg 83%
05:00 +8°C° 0 mm 5 mps 741 mmHg 83%
06:00 +9°C° 0 mm 5 mps 741 mmHg 83%
07:00 +9°C° 0 mm 5 mps 741 mmHg 82%
08:00 +10°C° 0 mm 5 mps 741 mmHg 82%
09:00 +12°C° 0 mm 4 mps 741 mmHg 79%
10:00 +13°C° 0 mm 4 mps 741 mmHg 76%
11:00 +15°C° 0 mm 4 mps 741 mmHg 73%
12:00 +17°C° 0.5 mm 4 mps 741 mmHg 72%
13:00 +17°C° 0.5 mm 5 mps 740 mmHg 71%
14:00 +19°C° 0.5 mm 6 mps 740 mmHg 70%
15:00 +19°C° 0.6 mm 5 mps 739 mmHg 73%
16:00 +19°C° 0.6 mm 4 mps 739 mmHg 75%
17:00 +19°C° 0.6 mm 4 mps 739 mmHg 78%
18:00 +18°C° 0.4 mm 3 mps 739 mmHg 82%
19:00 +16°C° 0.4 mm 3 mps 739 mmHg 86%
20:00 +14°C° 0.4 mm 2 mps 738 mmHg 90%
21:00 +14°C° 0 mm 2 mps 739 mmHg 91%
22:00 +13°C° 0 mm 2 mps 739 mmHg 91%
23:00 +13°C° 0 mm 2 mps 739 mmHg 92%

15 May, Saturday

Time Temperature Precipitation Wind Pressure Humidity
00:00 +13°C° 0 mm 2 mps 739 mmHg 92%
01:00 +12°C° 0 mm 2 mps 739 mmHg 92%
02:00 +12°C° 0 mm 2 mps 738 mmHg 92%
03:00 +12°C° 0 mm 2 mps 738 mmHg 92%
04:00 +12°C° 0 mm 2 mps 738 mmHg 93%
05:00 +12°C° 0 mm 2 mps 739 mmHg 94%
06:00 +14°C° 0.2 mm 2 mps 739 mmHg 90%
07:00 +15°C° 0.2 mm 2 mps 738 mmHg 87%
08:00 +17°C° 0.2 mm 2 mps 738 mmHg 83%
09:00 +18°C° 0.9 mm 3 mps 738 mmHg 78%
10:00 +19°C° 0.9 mm 3 mps 738 mmHg 73%
11:00 +20°C° 0.9 mm 3 mps 738 mmHg 69%
12:00 +20°C° 1.3 mm 4 mps 738 mmHg 71%
13:00 +19°C° 1.3 mm 5 mps 738 mmHg 73%
14:00 +19°C° 1.3 mm 5 mps 738 mmHg 75%
15:00 +17°C° 0.8 mm 5 mps 738 mmHg 78%
16:00 +17°C° 0.8 mm 5 mps 738 mmHg 81%
17:00 +16°C° 0.8 mm 5 mps 738 mmHg 84%
18:00 +15°C° 0.1 mm 5 mps 738 mmHg 87%
19:00 +14°C° 0.1 mm 4 mps 739 mmHg 90%
20:00 +13°C° 0.1 mm 4 mps 739 mmHg 93%
21:00 +12°C° 0 mm 4 mps 739 mmHg 94%
22:00 +11°C° 0 mm 3 mps 740 mmHg 95%
23:00 +10°C° 0 mm 3 mps 740 mmHg 96%

16 May, Sunday

Time Temperature Precipitation Wind Pressure Humidity
00:00 +10°C° 0 mm 3 mps 740 mmHg 96%
01:00 +10°C° 0 mm 3 mps 740 mmHg 96%
02:00 +9°C° 0 mm 3 mps 741 mmHg 96%
03:00 +9°C° 0 mm 2 mps 741 mmHg 95%
04:00 +9°C° 0 mm 2 mps 741 mmHg 95%
05:00 +9°C° 0 mm 2 mps 741 mmHg 95%
06:00 +10°C° 0 mm 3 mps 741 mmHg 92%
07:00 +11°C° 0 mm 3 mps 741 mmHg 89%
08:00 +12°C° 0 mm 4 mps 742 mmHg 86%
09:00 +14°C° 0.1 mm 4 mps 742 mmHg 81%
10:00 +15°C° 0.1 mm 4 mps 742 mmHg 75%
11:00 +16°C° 0.1 mm 5 mps 742 mmHg 70%
12:00 +18°C° 0 mm 4 mps 742 mmHg 68%
13:00 +18°C° 0 mm 4 mps 742 mmHg 66%
14:00 +19°C° 0 mm 3 mps 742 mmHg 63%
15:00 +19°C° 0 mm 3 mps 742 mmHg 65%
16:00 +19°C° 0 mm 2 mps 742 mmHg 67%
17:00 +20°C° 0 mm 1 mps 742 mmHg 69%
18:00 +18°C° 0 mm 1 mps 743 mmHg 72%
19:00 +16°C° 0 mm 1 mps 743 mmHg 76%
20:00 +15°C° 0 mm 1 mps 743 mmHg 80%
21:00 +14°C° 0 mm 1 mps 743 mmHg 83%
22:00 +14°C° 0 mm 2 mps 743 mmHg 86%
23:00 +13°C° 0 mm 2 mps 743 mmHg 88%

17 May, Monday

Time Temperature Precipitation Wind Pressure Humidity
00:00 +12°C° 0 mm 2 mps 743 mmHg 89%
01:00 +12°C° 0 mm 2 mps 743 mmHg 91%
02:00 +11°C° 0 mm 3 mps 743 mmHg 92%
03:00 +11°C° 0 mm 3 mps 743 mmHg 92%
04:00 +11°C° 0 mm 3 mps 743 mmHg 92%
05:00 +11°C° 0 mm 3 mps 743 mmHg 92%
06:00 +12°C° 0 mm 4 mps 743 mmHg 86%
07:00 +14°C° 0 mm 4 mps 743 mmHg 81%
08:00 +16°C° 0 mm 5 mps 743 mmHg 75%
09:00 +17°C° 0 mm 5 mps 742 mmHg 73%
10:00 +19°C° 0 mm 6 mps 742 mmHg 71%
11:00 +20°C° 0 mm 6 mps 741 mmHg 69%
12:00 +22°C° 0 mm 6 mps 741 mmHg 67%
13:00 +23°C° 0 mm 6 mps 741 mmHg 66%
14:00 +24°C° 0 mm 7 mps 740 mmHg 64%
15:00 +24°C° 0.1 mm 6 mps 740 mmHg 66%
16:00 +24°C° 0.1 mm 6 mps 739 mmHg 68%
17:00 +24°C° 0.1 mm 6 mps 739 mmHg 70%
18:00 +23°C° 0.1 mm 6 mps 739 mmHg 73%
19:00 +21°C° 0.1 mm 6 mps 739 mmHg 77%
20:00 +20°C° 0.1 mm 6 mps 739 mmHg 80%
21:00 +20°C° 0.1 mm 6 mps 739 mmHg 83%
22:00 +19°C° 0.1 mm 5 mps 739 mmHg 86%
23:00 +17°C° 0.1 mm 5 mps 739 mmHg 89%
Show more